Showing default

IRNSS 1D, 40547

Orbit data source: Space-Track

IRNSS 1D, 40547 is a payload satellite owned by ISRO (IN) in GEO that was launched on Sat, 28 Mar 2015 UTC via a PSLV-XL launch vehicle from the Sirharikota (SRI). Payloads include a variety of satellites, spacecraft, and rockets equipped with specific instruments for various scientific and technological missions. These include communications satellites like Starlink; space stations such as the ISS; scientific satellites like the Hubble; Earth observation satellites from companies like Planet Labs, Umbra, and HawkEye 360; GPS; miniature CubeSats for education and research; and military/defense satellites.

Not visible in the next 10 days
IRNSS 1D details
Identifier
40547, 2015-018A
Orbit
GEO
Last TLE update2 days ago
Origin
Flag of INISRO (IN / IND)
ManufacturerISRO SAC/Banga
MissionOperational Civil Navigation
Bus & MotorI1K, ISRO LAM
Mass1,425 kg wet, 603 kg dry
Launch date (UTC)
2015-03-28 (10 years ago)
Launch vehicle
PSLV-XL
Launch site
Sirharikota (SRI)
Object type
Payload
Rocket body
Debris
Shape & HBRBox + 2 Pan, 10 m
Radar Cross Section6.961 m², Large (>1 m²)

Expand to show TLE details & history

TLE from 2 days ago
0 IRNSS 1D
1 40547U 15018A   24338.68301142 -.00000257  00000-0  00000-0 0  9995
2 40547  27.1511 249.7593 0018211 183.0474 358.0718  1.00270084 35369
Epoch: 2024-12-03T16:23Z
Definitive object data (Epoch: 2024-12-03T16:23:32.186Z)
Latitude-0.46898°
Longitude111.83001°
Altitude35,709.774 km
Speed3.08 km/s
True Right ascension04h 42m 48s
True Declination0° 28' 07"
Sunlit
Object was in daylight at TLE epoch
Visualization TLE readout
Latitude26.77404°
Longitude31.78763°
Altitude35,778.839 km
Speed3.076 km/s
Apparent Right ascension23h 06m 00s
Apparent Declination19° 42' 17"
Sunlit
Object is in daylight
Visualization observer readout
Local Sidereal Time08:50:33
Azimuth325.395° NNW
Elevation-22.535°
Doppler factor1
Orbital elements
Apogee altitude35,864.604 km
Perigee altitude35,711.027 km
Semi-major axis42,165.953 km
Eccentricity0.0018211
Inclination27.1511°
RAAN249.7593°
Arg. of periapsis183.0474°
True anomaly358.06476°
Mean anomaly358.0718°
Eccentric anomaly358.06828°
Mean motion0.25067 °/min
BSTARUnknown
Orbital period1436.16 mins
Loading historical data...
40547 neighbors
Authenticating...
Loading maneuver chart data...
Loading historical data...
Loading historical data...
Loading historical data...
Loading historical data...
Loading historical data...
Loading historical data...
Loading historical data...
Other satellites on launch #18 in the year 2015 (2015-03-28 UTC)

IRNSS 1D Visibility forecast

Observer location: undefined°, undefined

IRNSS 1D is not visible in the next 10 days
Span
Click to sort rows by Start time (UTC) header in descending order
Start Az.
Max El. time (UTC)
Max El. Az.
Max El.
End time (UTC)
End Az.
|